Weather History for Grove, OK

Change the Weather History Date:

Thursday, January 24, 2013

  Actual Average (KSLG) Record (KSLG)
Temperature  
Mean Temperature 40 °F -  
Max Temperature 44 °F 44 °F 64 °F (2012)
Min Temperature 35 °F 27 °F 1 °F (2014)
Degree Days  
Heating Degree Days 26    
Moisture  
Dew Point 23 °F    
Average Humidity 52    
Maximum Humidity 65    
Minimum Humidity 42    
Precipitation  
Precipitation 0.00 in - - ()
Sea Level Pressure  
Sea Level Pressure 30.25 in    
Wind  
Wind Speed 8 mph (ENE)    
Max Wind Speed 14 mph    
Max Gust Speed 22 mph    
Visibility 10 miles    
Events      
Averages and records for this station are not official NWS values.
T = Trace of Precipitation, MM = Missing Value Source: NWS Daily Summary

Daily Weather History Graph

Daily Weather History Graph

Search for Another Location

Airport:

Trip Planner

Search our weather history database for the weather conditions in past years. The results will help you decide how hot, cold, wet, or windy it might be!

Date:

Astronomy

Jan. 24, 2013 Rise Set
Actual Time 7:26 AM CST 5:36 PM CST
Civil Twilight 6:58 AM CST 6:04 PM CST
Nautical Twilight 6:27 AM CST 6:35 PM CST
Astronomical Twilight 5:56 AM CST 7:06 PM CST
Moon 3:40 PM CST (1/24) 5:23 AM CST (1/24)
Length of Visible Light 11h 05m
Length of Day
10h 10m
Waxing Gibbous, 94% of the Moon is Illuminated
Jan 24
Waxing Gibbous
Jan 26
Full
Feb 3
Last Quarter
Feb 10
New
Feb 17
First Quarter

Hourly Weather History & Observations

Time (CST) Temp. Windchill Dew Point Humidity Pressure Visibility Wind Dir Wind Speed Gust Speed Precip Events Conditions
12:15 AM 44.6 °F 40.2 °F 30.2 °F 57% 30.28 in - NE 8.1 mph - N/A   Overcast
12:35 AM 44.6 °F 40.2 °F 28.4 °F 53% 30.28 in - NE 8.1 mph - N/A   Overcast
12:55 AM 42.8 °F 37.5 °F 28.4 °F 57% 30.28 in - NE 9.2 mph - N/A   Overcast
1:15 AM 42.8 °F 35.8 °F 28.4 °F 57% 30.29 in - NE 13.8 mph 19.6 mph N/A   Overcast
1:35 AM 42.8 °F 36.6 °F 26.6 °F 53% 30.30 in - NE 11.5 mph 20.7 mph N/A   Overcast
1:55 AM 41.0 °F 33.5 °F 26.6 °F 57% 30.30 in - NE 13.8 mph 21.9 mph N/A   Overcast
2:15 AM 41.0 °F 34.7 °F 26.6 °F 57% 30.30 in - NE 10.4 mph 19.6 mph N/A   Overcast
2:35 AM 41.0 °F 35.8 °F 26.6 °F 57% 30.31 in - NNE 8.1 mph - N/A   Overcast
2:55 AM 41.0 °F 35.8 °F 26.6 °F 57% 30.31 in - NE 8.1 mph - N/A   Overcast
3:15 AM 39.2 °F 34.2 °F 26.6 °F 61% 30.32 in - ENE 6.9 mph - N/A   Overcast
3:35 AM 39.2 °F 32.0 °F 26.6 °F 61% 30.31 in - ENE 11.5 mph 16.1 mph N/A   Overcast
3:55 AM 37.4 °F 30.3 °F 24.8 °F 60% 30.31 in - ENE 10.4 mph 19.6 mph N/A   Overcast
4:15 AM 37.4 °F 31.4 °F 24.8 °F 60% 30.31 in - NE 8.1 mph - N/A   Overcast
4:35 AM 37.4 °F 30.8 °F 24.8 °F 60% 30.31 in - NE 9.2 mph 17.3 mph N/A   Overcast
4:55 AM 37.4 °F 29.8 °F 24.8 °F 60% 30.31 in - NE 11.5 mph 16.1 mph N/A   Overcast
5:15 AM 35.6 °F 28.6 °F 23.0 °F 60% 30.32 in - NE 9.2 mph 18.4 mph N/A   Overcast
5:35 AM 35.6 °F 28.6 °F 23.0 °F 60% 30.32 in - NE 9.2 mph - N/A   Overcast
5:55 AM 35.6 °F 27.5 °F 21.2 °F 56% 30.31 in - NE 11.5 mph 17.3 mph N/A   Overcast
6:15 AM 35.6 °F 28.0 °F 21.2 °F 56% 30.31 in - NE 10.4 mph 19.6 mph N/A   Overcast
6:35 AM 35.6 °F 28.6 °F 21.2 °F 56% 30.32 in - ENE 9.2 mph 17.3 mph N/A   Overcast
6:55 AM 35.6 °F 28.6 °F 21.2 °F 56% 30.32 in - NE 9.2 mph - N/A   Overcast
7:15 AM 35.6 °F 29.9 °F 19.4 °F 52% 30.32 in - NE 6.9 mph - N/A   Overcast
7:35 AM 35.6 °F 28.6 °F 21.2 °F 56% 30.32 in - NE 9.2 mph - N/A   Overcast
7:55 AM 35.6 °F 29.2 °F 19.4 °F 52% 30.31 in - ENE 8.1 mph - N/A   Overcast
8:15 AM 35.6 °F 28.6 °F 21.2 °F 56% 30.31 in - ENE 9.2 mph 16.1 mph N/A   Overcast
8:35 AM 35.6 °F 29.9 °F 19.4 °F 52% 30.31 in - ENE 6.9 mph - N/A   Overcast
8:55 AM 35.6 °F 28.6 °F 19.4 °F 52% 30.32 in - ENE 9.2 mph 17.3 mph N/A   Overcast
9:15 AM 35.6 °F 28.0 °F 19.4 °F 52% 30.33 in - ENE 10.4 mph 17.3 mph N/A   Overcast
9:35 AM 35.6 °F 27.5 °F 19.4 °F 52% 30.34 in - ENE 11.5 mph 18.4 mph N/A   Overcast
9:55 AM 37.4 °F 30.8 °F 21.2 °F 52% 30.33 in - ENE 9.2 mph 17.3 mph N/A   Overcast
10:15 AM 37.4 °F 31.4 °F 21.2 °F 52% 30.32 in - ENE 8.1 mph 16.1 mph N/A   Overcast
10:35 AM 37.4 °F 31.4 °F 19.4 °F 48% 30.31 in - East 8.1 mph 18.4 mph N/A   Overcast
10:55 AM 39.2 °F 33.6 °F 21.2 °F 49% 30.31 in - East 8.1 mph - N/A   Overcast
11:15 AM 39.2 °F 33.6 °F 21.2 °F 49% 30.32 in - East 8.1 mph 16.1 mph N/A   Overcast
11:35 AM 41.0 °F 33.9 °F 21.2 °F 45% 30.31 in - East 12.7 mph - N/A   Overcast
11:55 AM 41.0 °F 34.7 °F 21.2 °F 45% 30.30 in - East 10.4 mph 16.1 mph N/A   Overcast
12:15 PM 41.0 °F 35.8 °F 21.2 °F 45% 30.29 in - East 8.1 mph - N/A   Overcast
12:35 PM 41.0 °F 36.4 °F 21.2 °F 45% 30.29 in - ENE 6.9 mph - N/A   Overcast
12:55 PM 41.0 °F 34.7 °F 21.2 °F 45% 30.28 in - ENE 10.4 mph 16.1 mph N/A   Overcast
1:15 PM 41.0 °F 34.7 °F 21.2 °F 45% 30.25 in - ENE 10.4 mph - N/A   Overcast
1:35 PM 41.0 °F 34.7 °F 21.2 °F 45% 30.25 in - ENE 10.4 mph - N/A   Overcast
1:55 PM 41.0 °F 35.2 °F 21.2 °F 45% 30.24 in - East 9.2 mph - N/A   Overcast
2:15 PM 41.0 °F 35.2 °F 21.2 °F 45% 30.22 in - East 9.2 mph - N/A   Overcast
2:35 PM 41.0 °F 34.7 °F 19.4 °F 42% 30.21 in - East 10.4 mph 16.1 mph N/A   Overcast
2:55 PM 41.0 °F 35.2 °F 21.2 °F 45% 30.20 in - East 9.2 mph - N/A   Overcast
3:15 PM 41.0 °F 34.7 °F 19.4 °F 42% 30.21 in - East 10.4 mph - N/A   Overcast
3:35 PM 41.0 °F 35.8 °F 19.4 °F 42% 30.19 in - East 8.1 mph - N/A   Overcast
3:55 PM 41.0 °F 36.4 °F 19.4 °F 42% 30.19 in - East 6.9 mph - N/A   Overcast
4:15 PM 41.0 °F 39.0 °F 21.2 °F 45% 30.19 in 10.0 mi East 3.5 mph - N/A   Overcast
4:35 PM 41.0 °F 35.8 °F 21.2 °F 45% 30.18 in - East 8.1 mph - N/A   Overcast
4:55 PM 41.0 °F 37.1 °F 21.2 °F 45% 30.16 in 10.0 mi East 5.8 mph - N/A   Overcast
5:15 PM 41.0 °F 38.0 °F 23.0 °F 49% 30.16 in - East 4.6 mph - N/A   Overcast
5:35 PM 41.0 °F 36.4 °F 23.0 °F 49% 30.16 in - East 6.9 mph - N/A   Overcast
5:55 PM 41.0 °F 39.0 °F 23.0 °F 49% 30.16 in - NE 3.5 mph - N/A   Overcast
6:15 PM 41.0 °F 38.0 °F 23.0 °F 49% 30.15 in 10.0 mi East 4.6 mph - N/A   Overcast
6:35 PM 41.0 °F 39.0 °F 23.0 °F 49% 30.15 in 10.0 mi ENE 3.5 mph - N/A   Overcast
6:55 PM 41.0 °F 38.0 °F 23.0 °F 49% 30.12 in 10.0 mi East 4.6 mph - N/A   Overcast
7:15 PM 41.0 °F 36.4 °F 23.0 °F 49% 30.12 in 10.0 mi ENE 6.9 mph - N/A   Overcast
7:35 PM 41.0 °F 39.0 °F 23.0 °F 49% 30.13 in 10.0 mi ENE 3.5 mph - N/A   Overcast
7:55 PM 41.0 °F - 24.8 °F 53% 30.16 in 10.0 mi Calm Calm - N/A   Overcast
8:15 PM 41.0 °F 39.0 °F 24.8 °F 53% 30.16 in 10.0 mi NE 3.5 mph - N/A   Overcast
8:35 PM 39.2 °F 37.0 °F 24.8 °F 56% 30.16 in 10.0 mi NE 3.5 mph - N/A   Overcast
8:55 PM 39.2 °F 37.0 °F 24.8 °F 56% 30.16 in 10.0 mi NE 3.5 mph - N/A   Overcast
9:15 PM 39.2 °F - 24.8 °F 56% 30.15 in 10.0 mi Calm Calm - N/A   Overcast
9:35 PM 39.2 °F - 24.8 °F 56% 30.15 in 10.0 mi Calm Calm - N/A   Overcast
9:55 PM 39.2 °F - 23.0 °F 52% 30.16 in 10.0 mi Calm Calm - N/A   Overcast
10:15 PM 39.2 °F - 24.8 °F 56% 30.16 in 10.0 mi Calm Calm - N/A   Overcast
10:35 PM 37.4 °F - 24.8 °F 60% 30.15 in 10.0 mi Calm Calm - N/A   Overcast
10:55 PM 37.4 °F - 24.8 °F 60% 30.16 in 10.0 mi Calm Calm - N/A   Overcast
11:15 PM 37.4 °F - 24.8 °F 60% 30.16 in 10.0 mi Calm Calm - N/A   Overcast
11:35 PM 37.4 °F 34.9 °F 24.8 °F 60% 30.15 in 10.0 mi East 3.5 mph - N/A   Overcast
11:55 PM 37.4 °F - 26.6 °F 65% 30.15 in 10.0 mi Calm Calm - N/A   Overcast